Weather History for Kaiser, MO

Change the Weather History Date:

Thursday, May 2, 2013

  Actual Average Record
Temperature  
Mean Temperature 53 °F -  
Max Temperature 69 °F 71 °F 86 °F (2012)
Min Temperature 37 °F 49 °F 30 °F (2005)
Degree Days  
Heating Degree Days 12    
Growing Degree Days 3 (Base 50)    
Moisture  
Dew Point 43 °F    
Average Humidity 82    
Maximum Humidity 93    
Minimum Humidity 64    
Precipitation  
Precipitation 0.14 in - - ()
Sea Level Pressure  
Sea Level Pressure 30.21 in    
Wind  
Wind Speed 5 mph (NNW)    
Max Wind Speed 10 mph    
Max Gust Speed 18 mph    
Visibility 8 miles    
Events      
Averages and records for this station are not official NWS values.
T = Trace of Precipitation, MM = Missing Value Source: NWS Daily Summary

Daily Weather History Graph

Daily Weather History Graph

Search for Another Location

Airport:

Trip Planner

Search our weather history database for the weather conditions in past years. The results will help you decide how hot, cold, wet, or windy it might be!

Date:

Astronomy

May. 02, 2013 Rise Set
Actual Time 6:12 AM CDT 8:02 PM CDT
Civil Twilight 5:43 AM CDT 8:31 PM CDT
Nautical Twilight 5:09 AM CDT 9:05 PM CDT
Astronomical Twilight 4:32 AM CDT 9:42 PM CDT
Moon 1:53 AM CDT (5/2) 12:59 PM CDT (5/2)
Length of Visible Light 14h 47m
Length of Day
13h 50m
Waning Gibbous, 47% of the Moon is Illuminated
May 2
Waning Gibbous
May 9
New
May 17
First Quarter
May 24
Full
May 31
Last Quarter

Hourly Weather History & Observations

Time (CDT) Temp. Windchill Dew Point Humidity Pressure Visibility Wind Dir Wind Speed Gust Speed Precip Events Conditions
12:15 AM 69.8 °F - 57.2 °F 64% 30.09 in 10.0 mi South 3.5 mph - N/A   Clear
12:35 AM 68.0 °F - 57.2 °F 68% 30.09 in 10.0 mi SSE 4.6 mph - N/A   Scattered Clouds
12:55 AM 66.2 °F - 57.2 °F 73% 30.08 in 10.0 mi SE 3.5 mph - N/A   Overcast
1:15 AM 66.2 °F - 57.2 °F 73% 30.09 in 10.0 mi Calm Calm - N/A   Overcast
1:35 AM 68.0 °F - 57.2 °F 68% 30.09 in 10.0 mi Calm Calm - N/A   Overcast
1:55 AM 64.4 °F - 57.2 °F 77% 30.09 in 10.0 mi Calm Calm - N/A   Overcast
2:15 AM 64.4 °F - 57.2 °F 77% 30.09 in 10.0 mi NNW 3.5 mph - N/A   Mostly Cloudy
2:35 AM 64.4 °F - 57.2 °F 77% 30.09 in 10.0 mi Calm Calm - N/A   Mostly Cloudy
2:55 AM 64.4 °F - 59.0 °F 83% 30.09 in 10.0 mi North 5.8 mph - N/A   Overcast
3:15 AM 60.8 °F - 55.4 °F 82% 30.10 in 10.0 mi North 8.1 mph - N/A   Overcast
3:35 AM 59.0 °F - 53.6 °F 82% 30.11 in 10.0 mi NNW 8.1 mph - N/A   Mostly Cloudy
3:55 AM 57.2 °F - 51.8 °F 82% 30.12 in 10.0 mi NNW 6.9 mph - N/A   Mostly Cloudy
4:15 AM 55.4 °F - 48.2 °F 77% 30.13 in 10.0 mi NNW 5.8 mph - N/A   Mostly Cloudy
4:35 AM 53.6 °F - 48.2 °F 82% 30.15 in 10.0 mi NW 5.8 mph - N/A   Mostly Cloudy
4:55 AM 53.6 °F - 46.4 °F 77% 30.15 in 10.0 mi NNW 5.8 mph - N/A   Overcast
5:15 AM 53.6 °F - 46.4 °F 77% 30.17 in 10.0 mi NNW 6.9 mph - N/A   Overcast
5:35 AM 51.8 °F - 44.6 °F 76% 30.18 in 10.0 mi NNW 5.8 mph - N/A   Overcast
5:55 AM 51.8 °F - 44.6 °F 76% 30.19 in 10.0 mi NNW 8.1 mph 17.3 mph N/A   Overcast
6:15 AM 50.0 °F - 42.8 °F 76% 30.20 in 9.0 mi NNW 6.9 mph - N/A   Overcast
6:35 AM 48.2 °F - 42.8 °F 82% 30.20 in 8.0 mi NNW 9.2 mph 16.1 mph N/A   Overcast
6:55 AM 48.2 °F - 41.0 °F 76% 30.22 in 8.0 mi NW 4.6 mph 16.1 mph N/A   Overcast
7:15 AM 48.2 °F - 41.0 °F 76% 30.22 in 9.0 mi NNW 10.4 mph - N/A   Overcast
7:35 AM 48.2 °F - 41.0 °F 76% 30.23 in 10.0 mi North 9.2 mph - N/A   Overcast
7:55 AM 48.2 °F - 39.2 °F 71% 30.23 in 10.0 mi NNW 5.8 mph 16.1 mph N/A   Overcast
8:15 AM 48.2 °F - 41.0 °F 76% 30.24 in 10.0 mi North 6.9 mph - N/A   Overcast
8:35 AM 48.2 °F - 41.0 °F 76% 30.24 in 10.0 mi North 4.6 mph - N/A   Overcast
8:55 AM 48.2 °F - 41.0 °F 76% 30.24 in 10.0 mi NNW 4.6 mph - N/A   Overcast
9:15 AM 48.2 °F - 42.8 °F 82% 30.24 in 5.0 mi NNW 4.6 mph - 0.03 in   Overcast
9:35 AM 46.4 °F 45.2 °F 44.6 °F 93% 30.24 in 5.0 mi NW 3.5 mph - 0.07 in   Overcast
9:55 AM 46.4 °F 44.3 °F 42.8 °F 87% 30.24 in 5.0 mi NNW 4.6 mph - 0.08 in   Overcast
10:15 AM 46.4 °F 44.3 °F 42.8 °F 87% 30.24 in 7.0 mi WNW 4.6 mph - N/A   Overcast
10:35 AM 48.2 °F - 44.6 °F 87% 30.24 in 7.0 mi NNW 5.8 mph - N/A   Overcast
10:55 AM 48.2 °F - 42.8 °F 82% 30.25 in 7.0 mi NW 4.6 mph - N/A   Overcast
11:15 AM 48.2 °F - 42.8 °F 82% 30.26 in 5.0 mi NW 6.9 mph - N/A   Overcast
11:35 AM 46.4 °F 42.9 °F 42.8 °F 87% 30.26 in 7.0 mi NNW 6.9 mph - N/A   Overcast
11:55 AM 46.4 °F 42.9 °F 42.8 °F 87% 30.27 in 10.0 mi NNW 6.9 mph - N/A   Overcast
12:15 PM 46.4 °F 42.4 °F 41.0 °F 81% 30.27 in 10.0 mi NNW 8.1 mph - N/A   Overcast
12:35 PM 46.4 °F 42.9 °F 41.0 °F 81% 30.27 in 10.0 mi NW 6.9 mph - N/A   Overcast
12:55 PM 44.6 °F 40.7 °F 41.0 °F 87% 30.26 in 5.0 mi North 6.9 mph - N/A   Overcast
1:15 PM 44.6 °F 42.2 °F 39.2 °F 81% 30.26 in 7.0 mi North 4.6 mph - 0.01 in   Overcast
1:35 PM 44.6 °F 40.2 °F 41.0 °F 87% 30.26 in 6.0 mi NNW 8.1 mph - 0.03 in   Overcast
1:55 PM 44.6 °F 43.1 °F 41.0 °F 87% 30.26 in 10.0 mi North 3.5 mph - 0.04 in   Overcast
2:15 PM 44.6 °F 40.7 °F 42.8 °F 93% 30.25 in 10.0 mi NNW 6.9 mph - N/A   Overcast
2:35 PM 44.6 °F 41.4 °F 41.0 °F 87% 30.25 in 10.0 mi NNW 5.8 mph - N/A   Overcast
2:55 PM 44.6 °F 40.7 °F 39.2 °F 81% 30.25 in 10.0 mi NNW 6.9 mph - N/A   Overcast
3:15 PM 44.6 °F 40.7 °F 39.2 °F 81% 30.25 in 10.0 mi NW 6.9 mph - N/A   Overcast
3:35 PM 44.6 °F 42.2 °F 39.2 °F 81% 30.24 in 10.0 mi NNW 4.6 mph - N/A   Overcast
3:55 PM 44.6 °F 40.7 °F 39.2 °F 81% 30.24 in 10.0 mi NNW 6.9 mph - N/A   Overcast
4:15 PM 44.6 °F 40.2 °F 39.2 °F 81% 30.24 in 10.0 mi NNW 8.1 mph - N/A   Overcast
4:35 PM 42.8 °F 39.3 °F 39.2 °F 87% 30.24 in 10.0 mi NNW 5.8 mph - N/A   Overcast
4:55 PM 42.8 °F 39.3 °F 39.2 °F 87% 30.25 in 10.0 mi NNW 5.8 mph - N/A   Overcast
5:15 PM 42.8 °F 38.0 °F 39.2 °F 87% 30.25 in 7.0 mi NW 8.1 mph 16.1 mph N/A   Overcast
5:35 PM 42.8 °F 38.6 °F 37.4 °F 81% 30.25 in 10.0 mi NNW 6.9 mph - 0.01 in   Overcast
5:55 PM 42.8 °F 38.6 °F 37.4 °F 81% 30.24 in 10.0 mi North 6.9 mph - 0.01 in   Overcast
6:15 PM 42.8 °F 38.0 °F 37.4 °F 81% 30.24 in 10.0 mi NNW 8.1 mph - N/A   Overcast
6:55 PM 41.0 °F 37.1 °F 37.4 °F 87% 30.25 in 10.0 mi NNW 5.8 mph 16.1 mph N/A   Overcast
7:15 PM 41.0 °F 34.7 °F 35.6 °F 81% 30.25 in 10.0 mi North 10.4 mph 16.1 mph N/A   Overcast
7:35 PM 41.0 °F 36.4 °F 35.6 °F 81% 30.25 in 10.0 mi NNW 6.9 mph - N/A   Overcast
7:55 PM 41.0 °F 36.4 °F 35.6 °F 81% 30.24 in 5.0 mi NNW 6.9 mph - N/A   Overcast
8:15 PM 39.2 °F 33.0 °F 35.6 °F 87% 30.25 in 3.0 mi North 9.2 mph 17.3 mph N/A   Overcast
8:35 PM 39.2 °F 33.0 °F 35.6 °F 87% 30.25 in 4.0 mi NNW 9.2 mph 18.4 mph N/A   Overcast
8:55 PM 39.2 °F 33.6 °F 35.6 °F 87% 30.25 in 4.0 mi North 8.1 mph - N/A   Overcast
9:15 PM 39.2 °F 33.6 °F 35.6 °F 87% 30.24 in 8.0 mi North 8.1 mph 16.1 mph N/A   Overcast
9:35 PM 37.4 °F 32.8 °F 35.6 °F 93% 30.25 in 7.0 mi North 5.8 mph - N/A   Overcast
9:55 PM 37.4 °F 32.8 °F 35.6 °F 93% 30.24 in 4.0 mi North 5.8 mph - N/A   Overcast
10:15 PM 37.4 °F 32.8 °F 33.8 °F 87% 30.24 in 3.0 mi NNW 5.8 mph - N/A   Overcast
10:35 PM 37.4 °F 30.8 °F 33.8 °F 87% 30.23 in 3.0 mi NNW 9.2 mph - N/A   Overcast
10:55 PM 37.4 °F 31.4 °F 33.8 °F 87% 30.23 in 8.0 mi North 8.1 mph - N/A   Overcast
11:15 PM 37.4 °F 30.8 °F 33.8 °F 87% 30.22 in 10.0 mi North 9.2 mph - N/A   Overcast
11:35 PM 37.4 °F 32.1 °F 33.8 °F 87% 30.22 in 10.0 mi North 6.9 mph - N/A   Overcast
11:55 PM 37.4 °F 32.1 °F 33.8 °F 87% 30.21 in 5.0 mi NNW 6.9 mph - 0.01 in   Overcast